Auburn, IN

12:47 AM EDT on August 17, 2017 (GMT -0400)
Auburn

Weather History for KGWB - March, 2013

Change the Weather History Date:

Wednesday, March 27, 2013

  Actual Average (KFWA) Record (KFWA)
Temperature  
Mean Temperature 37 °F -  
Max Temperature 42 °F 50 °F 84 °F (1910)
Min Temperature 30 °F 32 °F 1 °F (1965)
Degree Days  
Heating Degree Days 28    
Moisture  
Dew Point 26 °F    
Average Humidity 70    
Maximum Humidity 93    
Minimum Humidity 42    
Precipitation  
Precipitation 0.00 in - - ()
Sea Level Pressure  
Sea Level Pressure 30.23 in    
Wind  
Wind Speed 10 mph (WNW)    
Max Wind Speed 18 mph    
Max Gust Speed 25 mph    
Visibility 10 miles    
Events      
Averages and records for this station are not official NWS values.
T = Trace of Precipitation, MM = Missing Value Source: NWS Daily Summary

Daily Weather History Graph

Daily Weather History Graph

Search for Another Location

Airport or City:

Trip Planner

Search our weather history database for the weather conditions in past years. The results will help you decide how hot, cold, wet, or windy it might be!

Date:

Astronomy

Mar. 27, 2013 Rise Set
Actual Time 7:31 AM EDT 8:00 PM EDT
Civil Twilight 7:03 AM EDT 8:28 PM EDT
Nautical Twilight 6:31 AM EDT 9:00 PM EDT
Astronomical Twilight 5:57 AM EDT 9:34 PM EDT
Moon 8:44 PM EDT (3/27) 7:21 AM EDT (3/27)
Length of Visible Light 13h 24m
Length of Day
12h 28m
Full, 100% of the Moon is Illuminated
Mar 27
Full
Apr 3
Last Quarter
Apr 10
New
Apr 18
First Quarter
Apr 25
Full

Hourly Weather History & Observations

Time (EDT) Temp. Windchill Dew Point Humidity Pressure Visibility Wind Dir Wind Speed Gust Speed Precip Events Conditions
12:15 AM 33.8 °F 26.4 °F 28.4 °F 81% 30.17 in 10.0 mi WNW 9.2 mph - N/A   Overcast
12:35 AM 33.8 °F 26.4 °F 28.4 °F 81% 30.17 in 10.0 mi West 9.2 mph - N/A   Overcast
12:55 AM 33.8 °F 26.4 °F 28.4 °F 81% 30.18 in 10.0 mi WNW 9.2 mph - N/A   Overcast
1:15 AM 33.8 °F 25.8 °F 28.4 °F 81% 30.18 in 10.0 mi West 10.4 mph 16.1 mph N/A   Overcast
1:35 AM 33.8 °F 25.8 °F 28.4 °F 81% 30.18 in 10.0 mi WNW 10.4 mph - N/A   Overcast
1:55 AM 33.8 °F 26.4 °F 28.4 °F 81% 30.18 in 10.0 mi WNW 9.2 mph - N/A   Overcast
2:15 AM 33.8 °F 27.0 °F 28.4 °F 81% 30.18 in 10.0 mi WNW 8.1 mph - N/A   Overcast
2:35 AM 33.8 °F 26.4 °F 28.4 °F 81% 30.18 in 10.0 mi West 9.2 mph 16.1 mph N/A   Overcast
2:55 AM 32.0 °F 24.2 °F 28.4 °F 87% 30.18 in 10.0 mi WNW 9.2 mph - N/A   Overcast
3:15 AM 32.0 °F 24.2 °F 28.4 °F 87% 30.18 in 10.0 mi WNW 9.2 mph - N/A   Overcast
3:35 AM 32.0 °F 24.2 °F 28.4 °F 87% 30.18 in 10.0 mi WNW 9.2 mph - N/A   Overcast
3:55 AM 32.0 °F 23.6 °F 28.4 °F 87% 30.18 in 10.0 mi WNW 10.4 mph - N/A   Overcast
4:15 AM 33.8 °F 27.0 °F 28.4 °F 81% 30.18 in 10.0 mi WNW 8.1 mph - N/A   Overcast
4:35 AM 32.0 °F 24.8 °F 28.4 °F 87% 30.19 in 10.0 mi WNW 8.1 mph - N/A   Overcast
4:55 AM 32.0 °F 24.2 °F 30.2 °F 93% 30.19 in 10.0 mi West 9.2 mph - N/A   Overcast
5:15 AM 32.0 °F 24.8 °F 30.2 °F 93% 30.19 in 10.0 mi West 8.1 mph - N/A   Overcast
5:35 AM 32.0 °F 24.2 °F 30.2 °F 93% 30.19 in 10.0 mi West 9.2 mph - N/A   Overcast
5:55 AM 32.0 °F 24.8 °F 30.2 °F 93% 30.20 in 10.0 mi West 8.1 mph - N/A   Overcast
6:15 AM 32.0 °F 24.2 °F 30.2 °F 93% 30.20 in 10.0 mi West 9.2 mph - N/A   Overcast
6:35 AM 32.0 °F 24.8 °F 30.2 °F 93% 30.20 in 10.0 mi West 8.1 mph - N/A   Overcast
6:55 AM 32.0 °F 24.8 °F 30.2 °F 93% 30.21 in 10.0 mi West 8.1 mph - N/A   Overcast
7:15 AM 32.0 °F 25.6 °F 30.2 °F 93% 30.21 in 10.0 mi West 6.9 mph - N/A   Overcast
7:35 AM 32.0 °F 26.4 °F 30.2 °F 93% 30.21 in 7.0 mi West 5.8 mph - N/A   Overcast
7:55 AM 32.0 °F 26.4 °F 30.2 °F 93% 30.21 in 7.0 mi WNW 5.8 mph - N/A   Overcast
8:15 AM 32.0 °F 26.4 °F 30.2 °F 93% 30.22 in 7.0 mi WNW 5.8 mph - N/A   Scattered Clouds
8:35 AM 32.0 °F 26.4 °F 30.2 °F 93% 30.23 in 7.0 mi WNW 5.8 mph - N/A   Clear
8:55 AM 33.8 °F 27.7 °F 30.2 °F 87% 30.23 in 10.0 mi WNW 6.9 mph - N/A   Mostly Cloudy
9:15 AM 35.6 °F 28.6 °F 30.2 °F 81% 30.24 in 10.0 mi WNW 9.2 mph - N/A   Mostly Cloudy
9:35 AM 35.6 °F 28.6 °F 30.2 °F 81% 30.24 in 10.0 mi West 9.2 mph - N/A   Scattered Clouds
9:55 AM 35.6 °F 28.6 °F 30.2 °F 81% 30.24 in 10.0 mi NW 9.2 mph - N/A   Clear
10:15 AM 37.4 °F 30.8 °F 30.2 °F 75% 30.24 in 10.0 mi WNW 9.2 mph - N/A   Scattered Clouds
10:35 AM 37.4 °F 31.4 °F 28.4 °F 70% 30.24 in 10.0 mi WNW 8.1 mph - N/A   Scattered Clouds
10:55 AM 39.2 °F 32.5 °F 28.4 °F 65% 30.24 in 10.0 mi West 10.4 mph - N/A   Scattered Clouds
11:15 AM 41.0 °F 34.7 °F 28.4 °F 61% 30.25 in 10.0 mi West 10.4 mph 18.4 mph N/A   Scattered Clouds
11:35 AM 41.0 °F 35.2 °F 28.4 °F 61% 30.25 in 10.0 mi WNW 9.2 mph - N/A   Mostly Cloudy
11:55 AM 41.0 °F 34.7 °F 28.4 °F 61% 30.25 in 10.0 mi WNW 10.4 mph 23.0 mph N/A   Mostly Cloudy
12:15 PM 39.2 °F 30.8 °F 26.6 °F 61% 30.25 in 10.0 mi WNW 15.0 mph 20.7 mph N/A   Overcast
12:35 PM 37.4 °F 28.9 °F 28.4 °F 70% 30.25 in 10.0 mi West 13.8 mph 19.6 mph N/A   Overcast
12:55 PM 37.4 °F 29.8 °F 28.4 °F 70% 30.25 in 10.0 mi WNW 11.5 mph 16.1 mph N/A   Overcast
1:15 PM 37.4 °F 29.8 °F 26.6 °F 65% 30.25 in 10.0 mi WNW 11.5 mph 19.6 mph N/A   Overcast
1:35 PM 37.4 °F 29.3 °F 28.4 °F 70% 30.25 in 10.0 mi West 12.7 mph - N/A   Overcast
1:55 PM 41.0 °F 33.1 °F 28.4 °F 61% 30.25 in 10.0 mi West 15.0 mph 18.4 mph N/A   Overcast
2:15 PM 39.2 °F 31.6 °F 26.6 °F 61% 30.24 in 10.0 mi WNW 12.7 mph 19.6 mph N/A   Overcast
2:35 PM 41.0 °F 33.5 °F 26.6 °F 57% 30.24 in 10.0 mi WNW 13.8 mph - N/A   Overcast
2:55 PM 41.0 °F 32.2 °F 26.6 °F 57% 30.24 in 10.0 mi WNW 18.4 mph 25.3 mph N/A   Overcast
3:15 PM 41.0 °F 34.3 °F 24.8 °F 53% 30.23 in 10.0 mi WNW 11.5 mph 21.9 mph N/A   Overcast
3:35 PM 41.0 °F 34.3 °F 26.6 °F 57% 30.23 in 10.0 mi West 11.5 mph 19.6 mph N/A   Overcast
3:55 PM 41.0 °F 33.9 °F 26.6 °F 57% 30.23 in 10.0 mi WNW 12.7 mph 19.6 mph N/A   Mostly Cloudy
4:15 PM 41.0 °F 32.5 °F 23.0 °F 49% 30.23 in 10.0 mi West 17.3 mph 24.2 mph N/A   Overcast
4:35 PM 42.8 °F 35.1 °F 23.0 °F 46% 30.22 in 10.0 mi West 16.1 mph 19.6 mph N/A   Overcast
4:55 PM 42.8 °F 34.8 °F 23.0 °F 46% 30.22 in 10.0 mi West 17.3 mph 23.0 mph N/A   Overcast
5:15 PM 42.8 °F 34.8 °F 23.0 °F 46% 30.23 in 10.0 mi WNW 17.3 mph 20.7 mph N/A   Overcast
5:35 PM 41.0 °F 33.1 °F 21.2 °F 45% 30.23 in 10.0 mi WNW 15.0 mph 21.9 mph N/A   Mostly Cloudy
5:55 PM 42.8 °F 35.4 °F 21.2 °F 42% 30.23 in 10.0 mi WNW 15.0 mph 24.2 mph N/A   Mostly Cloudy
6:15 PM 41.0 °F 33.5 °F 23.0 °F 49% 30.23 in 10.0 mi West 13.8 mph 21.9 mph N/A   Mostly Cloudy
6:35 PM 41.0 °F 33.1 °F 21.2 °F 45% 30.23 in 10.0 mi West 15.0 mph 19.6 mph N/A   Mostly Cloudy
6:55 PM 41.0 °F 33.5 °F 21.2 °F 45% 30.23 in 10.0 mi West 13.8 mph - N/A   Scattered Clouds
7:15 PM 39.2 °F 31.6 °F 21.2 °F 49% 30.23 in 10.0 mi West 12.7 mph 19.6 mph N/A   Scattered Clouds
7:35 PM 37.4 °F 29.8 °F 23.0 °F 56% 30.24 in 10.0 mi West 11.5 mph 19.6 mph N/A   Clear
7:55 PM 37.4 °F 30.3 °F 21.2 °F 52% 30.24 in 10.0 mi West 10.4 mph - N/A   Clear
8:15 PM 35.6 °F 27.5 °F 21.2 °F 56% 30.24 in 10.0 mi West 11.5 mph - N/A   Clear
8:35 PM 35.6 °F 29.2 °F 21.2 °F 56% 30.25 in 10.0 mi West 8.1 mph - N/A   Clear
8:55 PM 35.6 °F 29.2 °F 21.2 °F 56% 30.25 in 10.0 mi West 8.1 mph - N/A   Clear
9:15 PM 33.8 °F 27.7 °F 21.2 °F 60% 30.26 in 10.0 mi West 6.9 mph - N/A   Clear
9:35 PM 32.0 °F 26.4 °F 21.2 °F 64% 30.26 in 10.0 mi WNW 5.8 mph - N/A   Clear
9:55 PM 32.0 °F 26.4 °F 21.2 °F 64% 30.27 in 10.0 mi West 5.8 mph - N/A   Clear
10:15 PM 32.0 °F 26.4 °F 21.2 °F 64% 30.27 in 10.0 mi West 5.8 mph - N/A   Clear
10:35 PM 32.0 °F 26.4 °F 21.2 °F 64% 30.27 in 10.0 mi West 5.8 mph - N/A   Clear
10:55 PM 32.0 °F 26.4 °F 21.2 °F 64% 30.27 in 10.0 mi West 5.8 mph - N/A   Clear
11:15 PM 32.0 °F 26.4 °F 21.2 °F 64% 30.27 in 10.0 mi WNW 5.8 mph - N/A   Clear
11:35 PM 32.0 °F 27.5 °F 19.4 °F 60% 30.27 in 10.0 mi West 4.6 mph - N/A   Clear
11:55 PM 30.2 °F 25.4 °F 21.2 °F 69% 30.27 in 10.0 mi West 4.6 mph - N/A   Clear